Lexington Weather

Lexington, Massachusetts, USA

56°F
10/22/2020 7:38pm 
  • Lexington Conditions: Mostly cloudy
  • Temperature: 55.8°F / 13.2°CColder 0.1°F than last hour.
  • Dew Point: 54.3°F 
  • Relative Humidity: 95%Increased 1.0% since last hour.
  • Wind: Wind from NNE NNE 1 mph, 10-min avg: 1 mph, gust: 4 mph
  • Barometer: 30.22 inRising 0.02  inHg/hr Rising Slowly
  • Visibility: 7 miles
  • Rain Today: 0.00 in
  •   

Regional Weather Roundup
for Boston / Norton, MA

        
000
ASUS41 KBOX 182005
RWRBOX

REGIONAL WEATHER ROUNDUP
NATIONAL WEATHER SERVICE BOSTON/NORTON MA
400 PM EDT SUN OCT 18 2020

NOTE:  "FAIR" INDICATES FEW OR NO CLOUDS BELOW 12,000 FEET WITH NO 
SIGNIFICANT WEATHER AND/OR OBSTRUCTIONS TO VISIBILITY.

MAZALL-182100-
EASTERN MASSACHUSETTS
  
CITY           SKY/WX    TMP DP  RH WIND       PRES   REMARKS
BOSTON         MOSUNNY   56  40  55 E16       30.48F                  
BEVERLY        SUNNY     57  39  51 SE12      30.47F                  
LAWRENCE       SUNNY     58  37  45 E9        30.49F                  
BEDFORD        SUNNY     58  38  47 E12       30.45F                  
BLUE HILL        N/A     57  35  43 SE7       30.45F                  
NORWOOD        SUNNY     62  36  37 E8        30.45F                  
MARSHFIELD     SUNNY     59  41  51 E12       30.47F                  
PLYMOUTH       SUNNY     58  40  51 E10       30.47F                  
TAUNTON        SUNNY     62  39  42 SE8       30.46S                  
NEW BEDFORD    SUNNY     60  42  51 SE10      30.46F                  
$$

MAZALL-182100-
CAPE COD AND THE ISLANDS
  
CITY           SKY/WX    TMP DP  RH WIND       PRES   REMARKS
FALMOUTH       SUNNY     57  39  51 E12       30.47F                  
HYANNIS        SUNNY     57  41  55 SE8       30.46F                  
CHATHAM        SUNNY     57  41  55 E10       30.49S                  
PROVINCETOWN   SUNNY     58  41  53 SE9       30.49F                  
NANTUCKET      SUNNY     59  42  53 E12       30.47S                  
MARTHAS VNYRD  SUNNY     59  42  53 E14       30.46F                  
$$
 
MAZALL-182100-
CENTRAL AND WESTERN MASSACHUSETTS
  
CITY           SKY/WX    TMP DP  RH WIND       PRES   REMARKS
WORCESTER      SUNNY     57  34  41 SE12      30.44F                  
FITCHBURG      SUNNY     60  34  37 SE9       30.45F                  
ORANGE         SUNNY     60  33  36 SE7       30.43F                  
SPRINGFIELD    PTSUNNY   62  38  40 S5        30.41F                  
WESTFIELD      MOSUNNY   61  39  44 S8        30.41F                  
NORTH ADAMS    MOSUNNY   59  38  45 SE16G22   30.39F                  
PITTSFIELD     MOSUNNY   57  38  48 SE14G22   30.38F                  
$$
 
RIZALL-182100-
RHODE ISLAND
  
CITY           SKY/WX    TMP DP  RH WIND       PRES   REMARKS
PROVIDENCE     MOSUNNY   60  42  51 SE10      30.46F                  
NEWPORT        SUNNY     57  42  57 SE8       30.46F                  
BLOCK ISLAND   MOSUNNY   57  42  57 E8        30.46F                  
SMITHFIELD     SUNNY     59  36  42 VRB5        N/A                   
WESTERLY       SUNNY     59  42  53 SE7       30.46F                  
$$
 
CTZALL-182100-
CONNECTICUT
  
CITY           SKY/WX    TMP DP  RH WIND       PRES   REMARKS
BRADLEY INTL   PTSUNNY   62  36  37 S14       30.42F                  
HARTFORD       MOSUNNY   61  40  45 S10G18    30.43F                  
BRIDGEPORT     MOSUNNY   62  44  51 SE9       30.42F                  
DANBURY        MOSUNNY   60  42  51 S8        30.42F                  
GROTON         MOSUNNY   59  43  55 SE13      30.45F                  
NEW HAVEN      MOSUNNY   63  44  50 SE10      30.43F                  
CHESTER        NOT AVBL                                               
MERIDEN        MOSUNNY   60  40  47 S12G17    30.43F                  
WILLIMANTIC    SUNNY     61  34  36 S10       30.44F                  
OXFORD         MOSUNNY   58  44  60 SE10      30.43F                  
$$

MEZ002-015-021-024-NHZ003-005-008-011-012-014-VTZ005-008-182100-
NORTHERN NEW ENGLAND
  
CITY           SKY/WX    TMP DP  RH WIND       PRES   REMARKS
PORTLAND ME    PTSUNNY   55  38  52 S10       30.50F                  
BANGOR ME      PTSUNNY   57  33  40 S12       30.50F                  
CONCORD NH     SUNNY     58  35  42 S9G16     30.45F                  
MANCHESTER NH  PTSUNNY   60  34  37 SE12      30.44F                  
NASHUA NH      SUNNY     59  38  45 SE9       30.46F                  
PORTSMOUTH NH  PTSUNNY   56  37  48 SE12      30.47                   
JAFFREY NH     SUNNY     57  32  38 S10       30.44F                  
KEENE NH       SUNNY     60  32  34 S7        30.42F                  
BURLINGTON VT  PTSUNNY   58  33  39 S10       30.33F                  
MT. WASHINGTON PTSUNNY   28  25  86 S36         N/A  WCI  12          
$$

NYZ052-076-182100-
EASTERN NEW YORK
  
CITY           SKY/WX    TMP DP  RH WIND       PRES   REMARKS
ALBANY         PTSUNNY   58  39  49 SE15G23   30.36F                  
NEW YORK CITY  MOSUNNY   63  42  46 SE13      30.40F                  
$$
 
ANZALL-182100-
MARINE OBSERVATIONS
  
STATION/POSITION TIME  TEMP    WIND        PRES    VSBY  WAVE
                       AIR SEA DIR/SP/G                  HT/PER
                 (UTC) (F)     (DEG/KT/KT) (MB)    (MI)  (FT/S)
BOSTON BUOY      1950   56 58  110/ 12/ 14 1031.1F         2/ 3
BUZZARDS BAY     1900          120/ 10/ 12 1032.9F
NANTUCKET SOUND  1940      61   80/ 10/ 12   N/A
MASS BAY-STELLWA 1904   57 58  130/ 10/ 12 1032.1F  1 7/8  2/ 3
ISLE OF SHOALS   1900   55     140/ 11/ 12 1032.2F
S OF BLOCK IS    1926      63                N/A           3/ 5
$$

......................KEY.........................
  SKY/WX - SKY CONDITION/PRESENT WEATHER
  TMP    - TEMPERATURE IN FAHRENHEIT
  DWPT   - DEWPOINT IN FAHRENHEIT
  RH     - RELATIVE HUMIDITY IN PERCENT
  WIND   - DIRECTION AND SPEED IN MPH
  PRES   - MEAN SEA LEVEL PRESSURE IN INCHES OF HG
  WCI    - WIND CHILL INDEX
  VSB    - VISIBILITY IN MILES
  HX     - HEAT INDEX
  TC     - TEMPERATURE IN CELSIUS
  VRB    - VARIABLE WIND DIRECTION
  N/A    - NOT AVAILABLE
  
      

Other recent Regional Weather Roundups

Thu Oct 22, 7:05pm

Thu Oct 22, 6:04pm

Thu Oct 22, 5:04pm

Thu Oct 22, 4:05pm

Thu Oct 22, 3:04pm

Thu Oct 22, 2:05pm

Thu Oct 22, 1:04pm

Thu Oct 22, 12:04pm

Thu Oct 22, 11:04am

Thu Oct 22, 10:05am

Thu Oct 22, 9:04am

Thu Oct 22, 8:05am

Thu Oct 22, 7:04am

Thu Oct 22, 6:04am

Thu Oct 22, 5:04am

Thu Oct 22, 4:04am

Thu Oct 22, 3:04am

Thu Oct 22, 2:04am

Thu Oct 22, 1:04am

Thu Oct 22, 12:04am

Wed Oct 21, 11:05pm

Wed Oct 21, 10:04pm

Wed Oct 21, 9:04pm

Wed Oct 21, 8:04pm

Wed Oct 21, 7:04pm

Wed Oct 21, 6:04pm

Wed Oct 21, 5:05pm

Wed Oct 21, 4:04pm

Wed Oct 21, 3:04pm

Wed Oct 21, 2:05pm

Wed Oct 21, 1:04pm

Wed Oct 21, 12:04pm

Wed Oct 21, 11:04am

Wed Oct 21, 10:04am

Wed Oct 21, 9:04am

Wed Oct 21, 8:04am

Wed Oct 21, 7:04am

Wed Oct 21, 6:04am

Wed Oct 21, 5:04am

Wed Oct 21, 4:04am

Wed Oct 21, 3:04am

Wed Oct 21, 2:04am

Wed Oct 21, 1:04am

Wed Oct 21, 12:04am

Tue Oct 20, 11:05pm

Tue Oct 20, 10:04pm

Tue Oct 20, 9:04pm

Tue Oct 20, 8:05pm

Tue Oct 20, 7:04pm

Tue Oct 20, 6:04pm

Tue Oct 20, 5:05pm

Tue Oct 20, 4:04pm

Tue Oct 20, 3:05pm

Tue Oct 20, 2:07pm

Tue Oct 20, 1:04pm

Tue Oct 20, 12:04pm

Tue Oct 20, 11:04am

Tue Oct 20, 10:05am

Tue Oct 20, 9:04am

Tue Oct 20, 8:04am

Tue Oct 20, 7:04am

Tue Oct 20, 6:04am

Tue Oct 20, 5:04am

Tue Oct 20, 4:04am

Tue Oct 20, 3:04am

Tue Oct 20, 2:04am

Tue Oct 20, 1:04am

Tue Oct 20, 12:04am

Mon Oct 19, 11:04pm

Mon Oct 19, 10:04pm

Mon Oct 19, 9:04pm

Mon Oct 19, 8:04pm

Mon Oct 19, 7:04pm

Mon Oct 19, 6:04pm

Mon Oct 19, 5:04pm

Mon Oct 19, 4:04pm

Mon Oct 19, 3:04pm

Mon Oct 19, 2:04pm

Mon Oct 19, 1:05pm

Mon Oct 19, 12:04pm

Mon Oct 19, 11:04am

Mon Oct 19, 10:04am

Mon Oct 19, 9:04am

Mon Oct 19, 8:04am

Mon Oct 19, 7:04am

Mon Oct 19, 6:04am

Mon Oct 19, 5:04am

Mon Oct 19, 4:04am

Mon Oct 19, 3:04am

Mon Oct 19, 2:04am

Mon Oct 19, 1:04am

Mon Oct 19, 12:05am

Sun Oct 18, 11:04pm

Sun Oct 18, 10:04pm

Sun Oct 18, 9:04pm

Sun Oct 18, 8:04pm

Sun Oct 18, 7:05pm

Sun Oct 18, 6:04pm

Sun Oct 18, 5:05pm

Sun Oct 18, 3:04pm

Sun Oct 18, 2:05pm

Sun Oct 18, 1:04pm

Sun Oct 18, 12:04pm

Sun Oct 18, 11:04am

Sun Oct 18, 10:04am

Sun Oct 18, 9:04am

Sun Oct 18, 8:04am

Sun Oct 18, 7:04am

Sun Oct 18, 6:04am

Sun Oct 18, 5:04am

Sun Oct 18, 4:04am

Sun Oct 18, 3:04am

Sun Oct 18, 2:04am

Sun Oct 18, 1:04am

Sun Oct 18, 12:04am

Sat Oct 17, 11:05pm

Sat Oct 17, 10:04pm

Sat Oct 17, 9:04pm

Sat Oct 17, 8:04pm

Sat Oct 17, 7:04pm

Sat Oct 17, 6:04pm

Sat Oct 17, 5:05pm

Sat Oct 17, 4:04pm

Sat Oct 17, 3:04pm

Sat Oct 17, 2:05pm

Sat Oct 17, 1:05pm

Sat Oct 17, 12:04pm

Sat Oct 17, 11:05am

Sat Oct 17, 10:04am

Sat Oct 17, 9:04am

Sat Oct 17, 8:04am

Sat Oct 17, 7:04am

Sat Oct 17, 6:04am

Sat Oct 17, 5:04am

Sat Oct 17, 4:04am

Sat Oct 17, 3:04am

Sat Oct 17, 2:04am

Sat Oct 17, 1:05am

Sat Oct 17, 12:04am

Fri Oct 16, 11:05pm

Fri Oct 16, 10:04pm

Fri Oct 16, 9:05pm

Fri Oct 16, 8:04pm

Fri Oct 16, 7:05pm

Fri Oct 16, 6:04pm

Fri Oct 16, 5:04pm

Fri Oct 16, 4:05pm

Fri Oct 16, 3:04pm

Fri Oct 16, 2:04pm

Fri Oct 16, 1:04pm

Fri Oct 16, 12:04pm

Fri Oct 16, 11:05am

Fri Oct 16, 10:04am

Fri Oct 16, 9:04am

Fri Oct 16, 8:04am

Fri Oct 16, 7:04am

Fri Oct 16, 6:04am

Fri Oct 16, 5:04am

Fri Oct 16, 4:04am

Fri Oct 16, 3:04am

Fri Oct 16, 2:04am

Fri Oct 16, 1:04am

Fri Oct 16, 12:04am

Thu Oct 15, 11:04pm

Thu Oct 15, 10:04pm

Thu Oct 15, 9:05pm

Thu Oct 15, 8:04pm

Meta data:

ID: d0d8fce8-df34-4dab-abb9-3d85156e863e
Link: https://api.weather.gov/products/d0d8fce8-df34-4dab-abb9-3d85156e863e